"Date","subscriberCount","subscriberChange","viewCount","viewChange","videoCount","videoChange","commentCount","commentChange"
"2020-10-15 00:02:06","1380000","0","992078831","0","787","1","0","0"
"2020-10-16 00:02:06","1380000","0","994181946","2103115","787","0","0","0"
"2020-10-17 00:02:05","1380000","0","995443787","1261841","788","1","0","0"
"2020-10-18 00:02:06","1380000","0","996995912","1552125","788","0","0","0"
"2020-10-19 00:02:06","1380000","0","998598484","1602572","789","1","0","0"
"2020-10-20 00:02:06","1380000","0","999969875","1371391","789","0","0","0"
"2020-10-21 00:02:05","1390000","10000","1001387047","1417172","790","1","0","0"
"2020-10-22 00:02:05","1390000","0","1002766117","1379070","790","0","0","0"
"2020-10-23 00:02:07","1390000","0","1004149098","1382981","791","1","0","0"
"2020-10-24 00:02:06","1390000","0","1005488569","1339471","791","0","0","0"
"2020-10-25 00:02:06","1390000","0","1006628550","1139981","792","1","0","0"
"2020-10-27 00:02:06","1390000","0","1009786993","3158443","793","1","0","0"
"2020-10-28 00:02:05","1390000","0","1011171879","1384886","793","0","0","0"
"2020-10-29 00:02:05","1400000","10000","1012424572","1252693","794","1","0","0"
"2020-10-30 00:02:04","1400000","0","1013662545","1237973","794","0","0","0"
"2020-10-31 00:02:05","1400000","0","1014774739","1112194","795","1","0","0"
"2020-11-01 00:02:04","1400000","0","1015860104","1085365","796","1","","0"
"2020-11-02 00:02:04","1400000","0","1017061089","1200985","796","0","0","0"
"2020-11-03 00:02:05","1400000","0","1018269013","1207924","797","1","","0"
"2020-11-04 00:02:05","1400000","0","1019608531","1339518","797","0","0","0"
"2020-11-05 00:02:07","1400000","0","1020669276","1060745","798","1","0","0"
"2020-11-06 00:02:06","1400000","0","1021935106","1265830","798","0","0","0"
"2020-11-07 00:02:07","1410000","10000","1022977439","1042333","799","1","0","0"
"2020-11-08 00:02:05","1410000","0","1024231653","1254214","799","0","","0"
"2020-11-09 00:02:07","1410000","0","1025460150","1228497","800","1","0","0"
"2020-11-10 00:02:05","1410000","0","1026680663","1220513","800","0","","0"
"2020-11-11 00:02:05","1410000","0","1027927525","1246862","801","1","","0"
"2020-11-12 00:02:04","1410000","0","1029290967","1363442","801","0","","0"
"2020-11-13 00:02:04","1410000","0","1030524653","1233686","802","1","","0"
"2020-11-14 00:02:03","1420000","10000","1031868528","1343875","802","0","","0"
"2020-11-15 00:02:03","1420000","0","1033281175","1412647","803","1","","0"
"2020-11-16 00:02:04","1420000","0","1034673422","1392247","803","0","","0"
"2020-11-17 00:02:03","1420000","0","1035923229","1249807","804","1","","0"
"2020-11-18 00:02:03","1420000","0","1037235779","1312550","804","0","","0"
"2020-11-19 00:02:03","1420000","0","1038503272","1267493","805","1","","0"
"2020-11-20 00:02:04","1420000","0","1039828407","1325135","805","0","","0"
"2020-11-21 00:02:03","1430000","10000","1041180756","1352349","806","1","","0"
"2020-11-22 00:02:03","1430000","0","1042462170","1281414","806","0","","0"
"2020-11-23 00:02:03","1430000","0","1043658808","1196638","807","1","","0"
"2020-11-24 00:02:03","1430000","0","1044713411","1054603","807","0","","0"
"2020-11-25 00:02:03","1430000","0","1045770487","1057076","808","1","","0"
"2020-11-26 00:02:03","1430000","0","1046902392","1131905","808","0","","0"
"2020-11-27 00:02:04","1430000","0","1048092147","1189755","809","1","","0"
"2020-11-28 00:02:03","1430000","0","1049296985","1204838","809","0","","0"
"2020-11-29 00:02:03","1430000","0","1050471633","1174648","809","0","","0"
"2020-11-30 00:02:04","1440000","10000","1051704818","1233185","810","1","","0"
"2020-12-01 00:02:03","1440000","0","1052786094","1081276","811","1","","0"
"2020-12-02 00:02:04","1440000","0","1053833190","1047096","811","0","","0"
"2020-12-03 00:02:03","1440000","0","1054831868","998678","812","1","","0"
"2020-12-04 00:02:03","1440000","0","1055846183","1014315","812","0","","0"
"2020-12-05 00:02:07","1440000","0","1056760109","913926","813","1","","0"
"2020-12-06 00:02:04","1440000","0","1057696537","936428","813","0","","0"
"2020-12-07 00:02:03","1440000","0","1058635009","938472","814","1","","0"
"2020-12-08 00:02:04","1440000","0","1059448429","813420","814","0","","0"
"2020-12-09 00:02:04","1440000","0","1060249282","800853","815","1","","0"
"2020-12-10 00:02:04","1440000","0","1060988856","739574","815","0","","0"
"2020-12-11 00:02:04","1440000","0","1061704602","715746","816","1","","0"
"2020-12-12 00:02:05","1440000","0","1062402337","697735","816","0","","0"
"2020-12-13 00:02:04","1440000","0","1063205937","803600","817","1","","0"
"2020-12-14 00:02:05","1450000","10000","1063941613","735676","817","0","","0"
"2020-12-15 00:02:06","1450000","0","1064691189","749576","818","1","","0"
"2020-12-16 00:02:04","1450000","0","1065426727","735538","818","0","","0"
"2020-12-17 00:02:05","1450000","0","1066120929","694202","819","1","","0"
"2020-12-18 00:02:05","1450000","0","1066884961","764032","819","0","","0"
"2020-12-19 00:02:05","1450000","0","1067530394","645433","820","1","","0"
"2020-12-20 00:02:04","1450000","0","1068289128","758734","820","0","","0"
"2020-12-21 00:02:05","1450000","0","1069037624","748496","821","1","","0"
"2020-12-22 00:02:04","1450000","0","1069695652","658028","821","0","","0"
"2020-12-23 00:02:04","1450000","0","1070383053","687401","822","1","","0"
"2020-12-24 00:02:05","1450000","0","1071129028","745975","822","0","","0"
"2020-12-25 00:02:05","1450000","0","1071873994","744966","823","1","","0"
"2020-12-26 00:02:04","1450000","0","1072594286","720292","823","0","","0"
"2020-12-27 00:02:04","1450000","0","1073292055","697769","824","1","","0"
"2020-12-28 00:02:05","1450000","0","1074026190","734135","824","0","","0"
"2020-12-29 00:02:04","1450000","0","1074737483","711293","825","1","","0"
"2020-12-30 00:02:04","1450000","0","1075481332","743849","825","0","","0"
"2020-12-31 00:02:03","1450000","0","1076239778","758446","826","1","","0"
"2021-01-01 00:02:05","1460000","10000","1077022044","782266","827","1","","0"
"2021-01-02 00:02:06","1460000","0","1077817450","795406","827","0","","0"
"2021-01-03 00:02:06","1460000","0","1078636892","819442","828","1","","0"
"2021-01-04 00:02:06","1460000","0","1079552983","916091","828","0","","0"
"2021-01-05 00:02:07","1460000","0","1080426197","873214","829","1","","0"
"2021-01-06 00:02:05","1460000","0","1081295667","869470","829","0","","0"
"2021-01-07 00:02:03","1460000","0","1082138673","843006","830","1","","0"
"2021-01-08 00:02:03","1460000","0","1082836545","697872","830","0","","0"
"2021-01-09 00:02:03","1460000","0","1083179373","342828","725","-105","","0"
"2021-01-10 00:02:03","1460000","0","1080029973","-3149400","725","0","","0"
"2021-01-11 00:02:03","1460000","0","1080817653","787680","726","1","","0"
"2021-01-12 00:02:03","1460000","0","1081718472","900819","726","0","","0"
"2021-01-13 00:02:03","1460000","0","1082665294","946822","727","1","","0"
"2021-01-14 00:02:03","1460000","0","1083591468","926174","727","0","","0"
"2021-01-15 00:02:03","1460000","0","1084528411","936943","728","1","","0"
"2021-01-16 00:02:03","1470000","10000","1085472498","944087","728","0","","0"
"2021-01-17 00:02:03","1470000","0","1086339739","867241","729","1","","0"
"2021-01-18 00:02:04","1470000","0","1087462309","1122570","729","0","","0"
"2021-01-19 00:02:03","1470000","0","1088434568","972259","730","1","","0"
"2021-01-20 00:02:03","1470000","0","1089433395","998827","730","0","","0"
"2021-01-21 00:02:03","1470000","0","1090481220","1047825","731","1","","0"
"2021-01-22 00:02:03","1470000","0","1091500896","1019676","731","0","","0"
"2021-01-23 00:02:03","1470000","0","1092613687","1112791","732","1","","0"
"2021-01-24 00:02:03","1470000","0","1093702631","1088944","732","0","","0"
"2021-01-25 00:02:03","1480000","10000","1094873329","1170698","733","1","","0"
"2021-01-26 00:02:03","1480000","0","1095714430","841101","733","0","","0"
"2021-01-27 00:02:03","1480000","0","1096378893","664463","734","1","","0"
"2021-01-28 00:02:03","1480000","0","1097278274","899381","734","0","","0"
"2021-01-29 00:02:04","1480000","0","1098284279","1006005","735","1","","0"
"2021-01-30 00:02:03","1480000","0","1099299332","1015053","735","0","","0"
"2021-01-31 00:02:03","1480000","0","1100407666","1108334","736","1","","0"
"2021-02-01 00:02:04","1480000","0","1101513324","1105658","737","1","","0"
"2021-02-02 00:02:03","1480000","0","1102627331","1114007","737","0","","0"
"2021-02-03 00:02:04","1480000","0","1103679598","1052267","738","1","","0"
"2021-02-04 00:02:03","1490000","10000","1104712768","1033170","738","0","","0"
"2021-02-05 00:02:04","1490000","0","1105731079","1018311","739","1","","0"
"2021-02-06 00:02:04","1490000","0","1106791833","1060754","739","0","","0"
"2021-02-07 00:02:03","1490000","0","1107811515","1019682","740","1","","0"
"2021-02-08 00:02:04","1490000","0","1108876966","1065451","740","0","","0"
"2021-02-09 00:02:03","1490000","0","1109823569","946603","741","1","","0"
"2021-02-10 00:02:04","1490000","0","1110865971","1042402","741","0","","0"
"2021-02-11 00:02:03","1490000","0","1111799889","933918","742","1","","0"
"2021-02-12 00:02:03","1490000","0","1112892125","1092236","742","0","","0"
"2021-02-13 00:02:03","1500000","10000","1113843554","951429","743","1","","0"
"2021-02-14 00:02:04","1500000","0","1114862039","1018485","743","0","","0"
"2021-02-15 00:02:03","1500000","0","1115733639","871600","744","1","","0"
"2021-02-16 00:02:04","1500000","0","1116847353","1113714","744","0","","0"
"2021-02-17 00:02:03","1500000","0","1117797917","950564","745","1","","0"
"2021-02-18 00:02:04","1500000","0","1118767847","969930","745","0","","0"
"2021-02-19 00:02:03","1500000","0","1119674768","906921","746","1","","0"
"2021-02-20 00:02:04","1500000","0","1120674451","999683","746","0","","0"
"2021-02-21 00:02:04","1500000","0","1121716844","1042393","747","1","","0"
"2021-02-22 00:02:04","1500000","0","1122705882","989038","747","0","","0"
"2021-02-23 00:02:03","1510000","10000","1123755167","1049285","748","1","","0"
"2021-02-24 00:02:03","1510000","0","1124816031","1060864","748","0","","0"
"2021-02-25 00:02:03","1510000","0","1125798042","982011","749","1","","0"
"2021-02-26 00:02:04","1510000","0","1126758171","960129","749","0","","0"
"2021-02-27 00:02:03","1510000","0","1127740708","982537","750","1","","0"
"2021-02-28 00:02:04","1510000","0","1128803820","1063112","750","0","","0"
"2021-03-01 00:02:03","1510000","0","1129872121","1068301","751","1","","0"
"2021-03-02 00:02:04","1510000","0","1130854084","981963","751","0","","0"
"2021-03-03 00:02:03","1510000","0","1131874935","1020851","752","1","","0"
"2021-03-04 00:02:03","1520000","10000","1133039521","1164586","752","0","","0"
"2021-03-05 00:02:03","1520000","0","1133291769","252248","753","1","","0"
"2021-03-06 00:02:03","1520000","0","1134447202","1155433","753","0","","0"
"2021-03-07 00:02:04","1520000","0","1135455789","1008587","754","1","","0"
"2021-03-08 00:02:04","1520000","0","1136592403","1136614","754","0","","0"
"2021-03-09 00:02:03","1520000","0","1137638036","1045633","755","1","","0"
"2021-03-10 00:02:04","1520000","0","1138490958","852922","755","0","","0"
"2021-03-11 00:02:03","1520000","0","1138950826","459868","756","1","","0"
"2021-03-12 00:02:04","1520000","0","1139765462","814636","756","0","","0"
"2021-03-13 00:02:03","1520000","0","1140443121","677659","757","1","","0"
"2021-03-14 00:02:04","1520000","0","1140795144","352023","757","0","","0"
"2021-03-15 00:02:04","1520000","0","1141127443","332299","758","1","","0"
"2021-03-16 00:02:03","1520000","0","1141446815","319372","757","-1","","0"
"2021-03-17 00:02:03","1520000","0","1141735973","289158","758","1","","0"
"2021-03-18 00:02:03","1520000","0","1141951922","215949","758","0","","0"
"2021-03-19 00:02:03","1520000","0","1142298218","346296","759","1","","0"
"2021-03-20 00:02:03","1520000","0","1142576250","278032","759","0","","0"
"2021-03-21 00:02:03","1520000","0","1142878296","302046","758","-1","","0"
"2021-03-22 00:02:03","1520000","0","1143123730","245434","758","0","","0"
"2021-03-23 00:02:04","1520000","0","1143388017","264287","759","1","","0"
"2021-03-24 00:02:04","1520000","0","1143661622","273605","760","1","","0"
"2021-03-25 00:02:03","1520000","0","1143986165","324543","761","1","","0"
"2021-03-26 00:02:03","1520000","0","1144410261","424096","761","0","","0"
"2021-03-27 00:02:03","1520000","0","1144982134","571873","762","1","","0"
"2021-03-28 00:02:04","1520000","0","1145834999","852865","762","0","","0"
"2021-03-29 00:02:04","1530000","10000","1146878867","1043868","763","1","","0"
"2021-03-30 00:02:03","1530000","0","1147971913","1093046","763","0","","0"
"2021-03-31 00:02:03","1530000","0","1149016097","1044184","764","1","","0"
"2021-04-01 00:02:04","1530000","0","1150055321","1039224","765","1","","0"
"2021-04-02 00:02:03","1530000","0","1151117739","1062418","765","0","","0"
"2021-04-03 00:02:03","1530000","0","1152148318","1030579","766","1","","0"
"2021-04-04 00:02:03","1530000","0","1153258058","1109740","766","0","","0"
"2021-04-05 00:02:04","1530000","0","1154435205","1177147","767","1","","0"
"2021-04-06 00:02:04","1530000","0","1155354622","919417","767","0","","0"
"2021-04-07 00:02:04","1540000","10000","1156529138","1174516","768","1","","0"
"2021-04-08 00:02:04","1540000","0","1157463255","934117","768","0","","0"
"2021-04-09 00:02:04","1540000","0","1158374750","911495","769","1","","0"
"2021-04-10 00:02:04","1540000","0","1159259282","884532","769","0","","0"
"2021-04-11 00:02:04","1540000","0","1160266319","1007037","770","1","","0"
"2021-04-12 00:02:04","1540000","0","1161265608","999289","770","0","","0"
"2021-04-13 00:02:04","1540000","0","1162026157","760549","771","1","","0"
"2021-04-14 00:02:04","1540000","0","1163274899","1248742","771","0","","0"
"2021-04-15 00:02:04","1540000","0","1164256782","981883","772","1","","0"
"2021-04-16 00:02:05","1540000","0","1165277695","1020913","772","0","","0"
"2021-04-17 00:02:04","1550000","10000","1166347131","1069436","773","1","","0"
"2021-04-18 00:02:05","1550000","0","1167597036","1249905","773","0","","0"
"2021-04-19 00:02:05","1550000","0","1168562066","965030","774","1","","0"
"2021-04-20 00:02:04","1550000","0","1169770797","1208731","774","0","","0"
"2021-04-21 00:02:04","1550000","0","1170873231","1102434","775","1","","0"
"2021-04-22 00:02:04","1550000","0","1171954947","1081716","775","0","","0"
"2021-04-23 00:02:04","1550000","0","1173072638","1117691","776","1","","0"
"2021-04-24 00:02:04","1550000","0","1174143938","1071300","776","0","","0"
"2021-04-25 00:02:04","1550000","0","1175238650","1094712","777","1","","0"
"2021-04-26 00:02:05","1560000","10000","1176234167","995517","777","0","","0"
"2021-04-27 00:02:04","1560000","0","1177253467","1019300","778","1","","0"
"2021-04-28 00:02:04","1560000","0","1178620320","1366853","778","0","","0"
"2021-04-29 00:02:04","1560000","0","1179713143","1092823","779","1","","0"
"2021-04-30 00:02:04","1560000","0","1180816396","1103253","779","0","","0"
"2021-05-01 00:02:05","1560000","0","1181750952","934556","780","1","","0"
"2021-05-02 00:02:04","1560000","0","1182703172","952220","780","0","","0"
"2021-05-03 00:02:05","1560000","0","1183718179","1015007","781","1","","0"
"2021-05-04 00:02:04","1560000","0","1184542185","824006","781","0","","0"
"2021-05-05 00:02:04","1570000","10000","1185870050","1327865","782","1","","0"
"2021-05-06 00:02:04","1570000","0","1186908624","1038574","782","0","","0"
"2021-05-07 00:02:05","1570000","0","1187919486","1010862","783","1","","0"
"2021-05-08 00:02:05","1570000","0","1188861354","941868","783","0","","0"
"2021-05-09 00:02:03","1570000","0","1189798634","937280","784","1","","0"
"2021-05-10 00:02:05","1570000","0","1190739002","940368","784","0","","0"
"2021-05-11 00:02:04","1570000","0","1191725641","986639","785","1","","0"
"2021-05-12 00:02:05","1570000","0","1192563796","838155","785","0","","0"
"2021-05-13 00:02:04","1570000","0","1193554283","990487","786","1","","0"
"2021-05-14 00:02:05","1570000","0","1194513203","958920","786","0","","0"
"2021-05-15 00:02:05","1570000","0","1195458091","944888","787","1","","0"
"2021-05-16 00:02:05","1580000","10000","1196530408","1072317","787","0","","0"
"2021-05-17 00:02:04","1580000","0","1197632700","1102292","788","1","","0"
"2021-05-18 00:02:05","1580000","0","1198751556","1118856","788","0","","0"
"2021-05-19 00:02:04","1580000","0","1199938702","1187146","789","1","","0"
"2021-05-20 00:02:04","1580000","0","1201265440","1326738","789","0","","0"
"2021-05-21 00:02:05","1580000","0","1202478897","1213457","790","1","","0"
"2021-05-22 00:02:05","1580000","0","1203699092","1220195","790","0","","0"
"2021-05-23 00:02:05","1580000","0","1204838246","1139154","791","1","","0"
"2021-05-24 00:02:05","1590000","10000","1206002905","1164659","791","0","","0"
"2021-05-25 00:02:05","1590000","0","1206861670","858765","792","1","","0"
"2021-05-26 00:02:04","1590000","0","1208411868","1550198","792","0","","0"
"2021-05-27 00:02:04","1590000","0","1209650257","1238389","793","1","","0"
"2021-05-28 00:02:04","1590000","0","1210846646","1196389","793","0","","0"
"2021-05-29 00:02:05","1590000","0","1212012747","1166101","794","1","","0"
"2021-05-30 00:02:06","1590000","0","1213211176","1198429","794","0","","0"
"2021-05-31 00:02:04","1590000","0","1214444146","1232970","795","1","","0"
"2021-06-01 00:02:04","1600000","10000","1215414792","970646","796","1","","0"
"2021-06-02 00:02:03","1600000","0","1216880931","1466139","796","0","","0"
"2021-06-03 00:02:04","1600000","0","1218031816","1150885","797","1","","0"
"2021-06-04 00:02:04","1600000","0","1219167465","1135649","797","0","","0"
"2021-06-05 00:02:04","1600000","0","1220312508","1145043","798","1","","0"
"2021-06-06 00:02:04","1600000","0","1221436079","1123571","798","0","","0"
"2021-06-07 00:02:03","1600000","0","1222523653","1087574","799","1","","0"
"2021-06-08 00:02:05","1600000","0","1223588679","1065026","799","0","","0"
"2021-06-09 00:02:03","1600000","0","1224579921","991242","800","1","","0"
"2021-06-10 00:02:03","1610000","10000","1225630012","1050091","800","0","","0"
"2021-06-11 00:02:04","1610000","0","1226621828","991816","801","1","","0"
"2021-06-12 00:02:04","1610000","0","1227700575","1078747","801","0","","0"
"2021-06-13 00:02:04","1610000","0","1228719212","1018637","802","1","","0"
"2021-06-14 00:02:03","1610000","0","1229781907","1062695","802","0","","0"
"2021-06-15 00:02:04","1610000","0","1230884480","1102573","803","1","","0"
"2021-06-16 00:02:04","1610000","0","1231849137","964657","803","0","","0"
"2021-06-17 00:02:03","1610000","0","1232858773","1009636","804","1","","0"
"2021-06-18 00:02:03","1610000","0","1233843352","984579","804","0","","0"
"2021-06-19 00:02:04","1610000","0","1234801658","958306","805","1","","0"
"2021-06-20 00:02:04","1610000","0","1235773698","972040","805","0","","0"
"2021-06-21 00:02:04","1620000","10000","1236739313","965615","806","1","","0"
"2021-06-22 00:02:04","1620000","0","1237752487","1013174","806","0","","0"
"2021-06-23 00:02:04","1620000","0","1238688462","935975","807","1","","0"
"2021-06-24 00:02:04","1620000","0","1239597237","908775","807","0","","0"
"2021-06-25 00:02:04","1620000","0","1240542437","945200","808","1","","0"
"2021-06-26 00:02:04","1620000","0","1241423715","881278","808","0","","0"
"2021-06-27 00:02:04","1620000","0","1242261517","837802","809","1","","0"
"2021-06-28 00:02:04","1620000","0","1243161741","900224","809","0","","0"
"2021-06-29 00:02:04","1620000","0","1244114543","952802","810","1","","0"
"2021-06-30 00:02:04","1620000","0","1244997836","883293","810","0","","0"
"2021-07-01 00:02:05","1620000","0","1245974037","976201","811","1","","0"
"2021-07-02 00:02:04","1620000","0","1246896945","922908","811","0","","0"
"2021-07-03 00:02:05","1630000","10000","1247903528","1006583","812","1","","0"
"2021-07-04 00:02:04","1630000","0","1248931436","1027908","812","0","","0"
"2021-07-05 00:02:05","1630000","0","1249912929","981493","813","1","","0"
"2021-07-06 00:02:05","1630000","0","1250546106","633177","813","0","","0"
"2021-07-07 00:02:04","1630000","0","1251955097","1408991","814","1","","0"
"2021-07-08 00:02:05","1630000","0","1252913615","958518","814","0","","0"
"2021-07-09 00:02:05","1630000","0","1253885568","971953","815","1","","0"
"2021-07-10 00:02:04","1630000","0","1254862822","977254","815","0","","0"
"2021-07-11 00:02:03","1630000","0","1255885842","1023020","816","1","","0"
"2021-07-12 00:02:03","1630000","0","1256959252","1073410","816","0","","0"
"2021-07-13 00:02:02","1640000","10000","1257795731","836479","817","1","","0"
"2021-07-14 00:02:04","1640000","0","1259131861","1336130","817","0","","0"
"2021-07-15 00:02:04","1640000","0","1260198865","1067004","818","1","","0"
"2021-07-16 00:02:04","1640000","0","1261315512","1116647","818","0","","0"
"2021-07-17 00:02:02","1640000","0","1262390935","1075423","819","1","","0"
"2021-07-18 00:02:03","1640000","0","1263471367","1080432","819","0","","0"
"2021-07-19 00:02:04","1640000","0","1264635524","1164157","820","1","","0"
"2021-07-20 00:02:03","1640000","0","1265886443","1250919","820","0","","0"
"2021-07-21 00:02:03","1640000","0","1267089798","1203355","821","1","","0"
"2021-07-22 00:02:03","1650000","10000","1268189917","1100119","821","0","","0"
"2021-07-23 00:02:03","1650000","0","1269308837","1118920","822","1","","0"
"2021-07-24 00:02:02","1650000","0","1270398109","1089272","822","0","","0"
"2021-07-25 00:02:03","1650000","0","1271524343","1126234","823","1","","0"
"2021-07-26 00:02:03","1650000","0","1272701224","1176881","823","0","","0"
"2021-07-27 00:02:03","1650000","0","1273943359","1242135","824","1","","0"
"2021-07-28 00:02:04","1650000","0","1275085034","1141675","824","0","","0"
"2021-07-29 00:02:03","1650000","0","1276205080","1120046","825","1","","0"
"2021-07-30 00:02:03","1650000","0","1277296489","1091409","825","0","","0"
"2021-07-31 00:02:03","1660000","10000","1278436830","1140341","826","1","","0"
"2021-08-01 00:02:03","1660000","0","1279527355","1090525","827","1","","0"
"2021-08-02 00:02:03","1660000","0","1280691373","1164018","827","0","","0"
"2021-08-03 00:02:03","1660000","0","1281919176","1227803","828","1","","0"
"2021-08-04 00:02:03","1660000","0","1283199467","1280291","828","0","","0"
"2021-08-05 00:02:02","1660000","0","1284142672","943205","829","1","","0"
"2021-08-06 00:02:03","1660000","0","1285250598","1107926","829","0","","0"
"2021-08-07 00:02:03","1660000","0","1286036062","785464","830","1","","0"
"2021-08-08 00:02:03","1660000","0","1287462335","1426273","831","1","","0"
"2021-08-09 00:02:03","1660000","0","1288618524","1156189","832","1","","0"
"2021-08-10 00:02:04","1670000","10000","1289854705","1236181","833","1","","0"
"2021-08-11 00:02:03","1670000","0","1289854705","0","834","1","","0"
"2021-08-12 00:02:03","1670000","0","1291978402","2123697","835","1","","0"
"2021-08-13 00:02:03","1670000","0","1293023865","1045463","836","1","","0"
"2021-08-14 00:02:04","1670000","0","1294112368","1088503","837","1","","0"
"2021-08-15 00:02:04","1670000","0","1295185970","1073602","838","1","","0"
"2021-08-16 00:02:05","1670000","0","1296339678","1153708","839","1","","0"
"2021-08-17 00:02:04","1670000","0","1296989142","649464","840","1","","0"
"2021-08-18 00:02:03","1670000","0","1298531918","1542776","841","1","","0"
"2021-08-19 00:02:03","1670000","0","1299531692","999774","842","1","","0"
"2021-08-20 00:02:02","1670000","0","1300556436","1024744","843","1","","0"
"2021-08-21 00:02:03","1670000","0","1301573716","1017280","844","1","","0"
"2021-08-22 00:02:08","1680000","10000","1302583659","1009943","845","1","","0"
"2021-08-23 00:02:03","1680000","0","1303649018","1065359","846","1","","0"
"2021-08-24 00:02:04","1680000","0","1304693936","1044918","847","1","","0"
"2021-08-25 00:02:03","1680000","0","1305630683","936747","848","1","","0"